Simultaneous Nadir Overpasses (SNOs) Predictions

Prediction of SNOs between AQUA and NOAA-19 Satellite Orbit:

Table of predicted SNOs for the next 14.0 days since TLE Epoch: 1/9/2016
Index Date (AQUA) Time (AQUA) Lat,Lon (AQUA) SZA (AQUA ) Date (NOAA-19) Time (NOAA-19) Lat,Lon (NOAA-19) SZA (NOAA-19 ) Distance(km) Time Diff (sec)
1 01/09/2016 15:21:05 -80.69, 92.46 75.27 01/09/2016 15:19:58 -80.69, 92.41 75.24 0.90 67
2 01/09/2016 16:10:30 80.64, -99.35 104.64 01/09/2016 16:10:53 80.64, -99.38 104.64 0.83 23
3 01/11/2016 20:54:51 80.69,-171.03 104.43 01/11/2016 20:54:06 80.69,-171.11 104.46 1.50 45
4 01/11/2016 21:44:16 -80.65, -2.89 75.66 01/11/2016 21:45:07 -80.64, -2.76 75.70 2.63 51
5 01/14/2016 02:28:36 -80.68, -74.29 75.94 01/14/2016 02:28:19 -80.67, -74.32 75.94 0.52 17
6 01/14/2016 03:17:55 80.45, 95.80 103.63 01/14/2016 03:19:09 80.52, 95.91 103.66 8.79 74
7 01/16/2016 08:02:21 80.67, 22.37 103.66 01/16/2016 08:02:27 80.66, 22.41 103.66 0.69 6
8 01/18/2016 12:46:40 80.68, -48.86 103.28 01/18/2016 12:45:38 80.68, -48.71 103.29 2.72 62
9 01/18/2016 13:36:06 -80.66, 118.97 76.76 01/18/2016 13:36:39 -80.65, 119.12 76.80 2.85 33
10 01/20/2016 18:20:25 -80.68, 47.67 77.16 01/20/2016 18:19:50 -80.68, 47.78 77.16 1.95 35
11 01/20/2016 19:09:50 80.64,-144.19 102.75 01/20/2016 19:10:48 80.65,-144.22 102.73 0.79 58




NCC Satellite Simultaneous Nadir Overpasses (SNOs) Prediction Service
